, FL

(GMT )
Crestview

Weather History for KEGI - February, 2012

Change the Weather History Date:

Tuesday, February 28, 2012

  Actual Average Record
Temperature  
Mean Temperature 66 °F -  
Max Temperature 73 °F - - ()
Min Temperature 59 °F - - ()
Cooling Degree Days 1    
Growing Degree Days 16 (Base 50)    
Moisture  
Dew Point 61 °F    
Average Humidity 95    
Maximum Humidity 100    
Minimum Humidity 71    
Precipitation  
Precipitation 0.00 in - - ()
Sea Level Pressure  
Sea Level Pressure 30.27 in    
Wind  
Wind Speed 3 mph (SE)    
Max Wind Speed 12 mph    
Max Gust Speed -    
Visibility 4 miles    
Events Fog    
Averages and records for this station are not official NWS values.
T = Trace of Precipitation, MM = Missing Value Source: NWS Daily Summary

Daily Weather History Graph

Daily Weather History Graph

Search for Another Location

Airport or City:

Trip Planner

Search our weather history database for the weather conditions in past years. The results will help you decide how hot, cold, wet, or windy it might be!

Date:

Astronomy

Feb. 28, 2012 Rise Set
Actual Time 6:14 AM CST 5:43 PM CST
Civil Twilight 5:49 AM CST 6:07 PM CST
Nautical Twilight 5:21 AM CST 6:35 PM CST
Astronomical Twilight 4:54 AM CST 7:03 PM CST
Moon 9:50 AM CST (2/28) No Moon Set
Length of Visible Light 12h 18m
Length of Day
11h 29m
Waxing Crescent, 38% of the Moon is Illuminated
Feb 28
Waxing Crescent
Feb 29
First Quarter
Mar 8
Full
Mar 14
Last Quarter
Mar 22
New

Hourly Weather History & Observations

Time (CST) Temp. Dew Point Humidity Pressure Visibility Wind Dir Wind Speed Gust Speed Precip Events Conditions
2:39 AM 59.0 °F 59.0 °F 100% 30.28 in 0.5 mi Calm Calm - N/A Fog Fog
2:55 AM 59.0 °F 58.6 °F 99% 30.28 in 0.5 mi Calm Calm - N/A Fog Fog
3:55 AM 59.0 °F 58.6 °F 99% 30.27 in 0.5 mi NE 3.5 mph - N/A Fog Fog
3:57 AM 59.0 °F 59.0 °F 100% 30.27 in 0.8 mi NE 3.5 mph - N/A   Mist
4:55 AM 59.0 °F 58.6 °F 99% 30.27 in 0.8 mi East 3.5 mph - N/A   Mist
5:22 AM 59.0 °F 59.0 °F 100% 30.27 in 1.0 mi East 4.6 mph - N/A   Mist
5:41 AM 59.0 °F 59.0 °F 100% 30.27 in 1.2 mi Calm Calm - N/A   Overcast
5:55 AM 59.2 °F 58.8 °F 99% 30.27 in 1.2 mi Calm Calm - N/A   Overcast
5:58 AM 59.0 °F 59.0 °F 100% 30.27 in 1.0 mi East 3.5 mph - N/A   Mist
6:08 AM 59.0 °F 59.0 °F 100% 30.28 in 0.8 mi Calm Calm - N/A   Mist
6:14 AM 59.0 °F 59.0 °F 100% 30.28 in 0.5 mi East 4.6 mph - N/A Fog Fog
6:23 AM 59.0 °F 59.0 °F 100% 30.28 in 0.8 mi East 4.6 mph - N/A   Mist
6:30 AM 59.0 °F 59.0 °F 100% 30.28 in 0.5 mi East 3.5 mph - N/A Fog Fog
6:54 AM 59.0 °F 59.0 °F 100% 30.29 in 0.2 mi Calm Calm - N/A Fog Fog
6:55 AM 59.4 °F 59.4 °F 100% 30.29 in 0.5 mi Calm Calm - N/A Fog Fog
7:02 AM 59.0 °F 59.0 °F 100% 30.30 in 0.5 mi Calm Calm - N/A Fog Fog
7:23 AM 60.8 °F 60.8 °F 100% 30.30 in 0.8 mi Calm Calm - N/A   Mist
7:33 AM 60.8 °F 60.8 °F 100% 30.30 in 1.0 mi Calm Calm - N/A   Mist
7:37 AM 60.8 °F 60.8 °F 100% 30.30 in 1.2 mi Calm Calm - N/A   Overcast
7:39 AM 60.8 °F 60.8 °F 100% 30.30 in 1.5 mi Calm Calm - N/A   Overcast
7:41 AM 60.8 °F 60.8 °F 100% 30.30 in 1.8 mi Calm Calm - N/A   Overcast
7:43 AM 60.8 °F 60.8 °F 100% 30.31 in 2.0 mi Calm Calm - N/A   Overcast
7:46 AM 60.8 °F 60.8 °F 100% 30.31 in 2.5 mi Calm Calm - N/A   Overcast
7:48 AM 60.8 °F 60.8 °F 100% 30.31 in 3.0 mi Calm Calm - N/A   Overcast
7:55 AM 60.4 °F 60.4 °F 100% 30.31 in 5.0 mi Calm Calm - N/A   Overcast
8:15 AM 60.8 °F 60.8 °F 100% 30.30 in 10.0 mi East 4.6 mph - N/A   Overcast
8:55 AM 62.8 °F 62.8 °F 100% 30.30 in 10.0 mi Variable 4.6 mph - N/A   Overcast
9:17 AM 64.4 °F 64.4 °F 100% 30.27 in 10.0 mi ESE 6.9 mph - N/A   Overcast
9:32 AM 66.2 °F 66.2 °F 100% 30.27 in 10.0 mi ESE 5.8 mph - N/A   Overcast
9:55 AM 66.2 °F 64.6 °F 94% 30.29 in 10.0 mi SE 8.1 mph - N/A   Overcast
10:55 AM 68.7 °F 62.6 °F 81% 30.29 in 10.0 mi East 6.9 mph - N/A   Overcast
11:45 AM 71.6 °F 62.6 °F 73% 30.25 in 10.0 mi East 5.8 mph - N/A   Overcast
11:58 AM 72.0 °F 63.5 °F 75% 30.27 in 10.0 mi Variable 3.5 mph - N/A   Overcast
12:55 PM 72.9 °F 63.5 °F 72% 30.24 in 10.0 mi SSE 8.1 mph - N/A   Mostly Cloudy
1:56 PM 72.5 °F 63.1 °F 72% 30.23 in 10.0 mi South 9.2 mph - N/A   Mostly Cloudy
2:16 PM 71.6 °F 62.6 °F 73% 30.21 in 10.0 mi SSE 9.2 mph - N/A   Mostly Cloudy
2:56 PM 73.2 °F 63.5 °F 71% 30.22 in 10.0 mi South 10.4 mph - N/A   Mostly Cloudy
3:55 PM 69.8 °F 62.8 °F 78% 30.22 in 10.0 mi SSE 8.1 mph - N/A   Overcast
4:55 PM 64.6 °F 62.6 °F 93% 30.23 in 10.0 mi SSE 6.9 mph - N/A   Overcast
5:55 PM 63.9 °F 62.4 °F 95% 30.25 in 5.0 mi South 8.1 mph - N/A   Overcast
6:55 PM 62.8 °F 62.4 °F 99% 30.26 in 1.5 mi SSE 6.9 mph - N/A   Overcast
7:13 PM 62.6 °F 62.6 °F 100% 30.25 in 1.0 mi South 6.9 mph - N/A   Overcast
7:55 PM 62.4 °F 62.1 °F 99% 30.26 in 1.0 mi South 6.9 mph - N/A   Overcast
8:55 PM 62.8 °F 62.4 °F 99% 30.28 in 0.8 mi SSE 5.8 mph - N/A   Overcast
9:55 PM 63.0 °F 62.6 °F 99% 30.27 in 0.8 mi SSE 9.2 mph - N/A   Overcast
10:55 PM 63.0 °F 62.6 °F 99% 30.26 in 0.8 mi SSE 11.5 mph - N/A   Light Drizzle
11:55 PM 62.2 °F 62.1 °F 99% 30.23 in 1.0 mi SSE 10.4 mph - 0.00 in   Overcast